AirNav   Duncan Aviation - Near you to keep you flying
 
 864 users online  

20TA Mag Drop Airport
Bells, Texas, USA

GOING TO BELLS?


FAA INFORMATION EFFECTIVE 11 AUGUST 2022

Location

FAA Identifier: 20TA
Lat/Long: 33-33-33.0000N 096-24-34.0000W
33-33.550000N 096-24.566667W
33.5591667,-96.4094444
(estimated)
Elevation: 740 ft. / 226 m (estimated)
From city: 5 miles S of BELLS, TX
Time zone: UTC -5 (UTC -6 during Standard Time)
Zip code: 75491

Airport Operations

Airport use: Private use. Permission required prior to landing
Activation date: 02/2008
Control tower: no
ARTCC: FORT WORTH CENTER
FSS: FORT WORTH FLIGHT SERVICE STATION
Attendance: UNATNDD
Segmented circle: no

Airport Communications

WX AWOS-3PT at F00 (12 nm E): 118.05 (903-583-2082)
WX AWOS-3 at GYI (16 nm NW): 118.775 (903-786-7790)

Nearby radio navigation aids

VOR radial/distance  VOR name  Freq  Var
BYPr272/8.9BONHAM VORTAC114.6006E

 
NDB name  Hdg/Dist  Freq  Var  ID
DENISON135/20.634106EDNI -.. -. ..

Airport Services

Runway Information

Runway 18/36

Dimensions: 2300 x 50 ft. / 701 x 15 m
Surface: turf
RUNWAY 18  RUNWAY 36
Traffic pattern: leftright
Obstructions: tower1045 ft. tower, 13165 ft. from runway

Airport Ownership and Management from official FAA records

Ownership: Privately-owned
Owner: JEREL A. HARVEY
859 PENNY RD
BELLS, TX 75414
Phone 214-908-3057
Manager: JEREL A. HARVEY
859 PENNY RD
BELLS, TX 75414
Phone 214-908-3057

Airport Operational Statistics

Aircraft based on the field: 1
Single engine airplanes: 1
    

Additional Remarks

OWNER REQUESTS CHARTING.
FOR CD CTC FORT WORTH ARTCC AT 817-858-7584.

Instrument Procedures

There are no published instrument procedures at 20TA.

Some nearby airports with instrument procedures:

KSWI - Sherman Municipal Airport (10 nm NW)
F00 - Jones Field Airport (12 nm E)
KGYI - North Texas Regional Airport/Perrin Field (16 nm NW)
KDUA - Durant Regional Airport - Eaker Field (23 nm N)
KTKI - McKinney National Airport (25 nm S)
 
Loc | Ops | Rwys | IFR | FBO | Links
Com | Nav | Svcs | Stats | Notes

City of Fort Worth
 
Aerial photo
No photo
 
Sectional chart

 
Airport distance calculator
Flying to Mag Drop Airport? Find the distance to fly.

From to 20TA

Sunrise and sunset
Times for 16-Aug-2022
 Local
(UTC-5)
 Zulu
(UTC)
Morning civil twilight06:2311:23
Sunrise06:5011:50
Sunset20:1001:10
Evening civil twilight20:3601:36

Current date and time
Zulu (UTC)  17-Aug-2022 04:28:21
Local (UTC-5)  16-Aug-2022 23:28:21
 
METAR
KF00 
12nm E 
170415Z AUTO 19003KT 10SM CLR 29/16 A2989 RMK AO2 T02920164
KGYI 
16nm NW 
170415Z AUTO 18005KT 10SM CLR 31/17 A2991 RMK AO2 T03070165 TSNO
KDUA 
23nm N 
170415Z AUTO 21004KT 10SM CLR 31/15 A2990 RMK AO2
TAF
KDAL 
48nm SW 
162108Z 1621/1718 VRB05KT P6SM BKN250 FM171200 25007KT P6SM FEW180 FM171700 32010KT P6SM FEW070 BKN100
KDFW 
50nm SW 
162108Z 1621/1724 22005KT P6SM BKN250 FM171200 25007KT P6SM FEW180 FM171700 32010KT P6SM FEW070 BKN100 FM172300 35010KT P6SM VCTS SCT070CB
NOTAMs
Click for the latest NOTAMs
NOTAMs are issued by the DoD/FAA and will open in a separate window not controlled by AirNav.

 

 
 

Would you like to see your business listed on this page?

 If your business provides an interesting product or service to pilots, flight crews, aircraft, or users of the Mag Drop Airport, you should consider listing it here.  To start the listing process, click on the button below
 
Add a business
 

Other Pages about Mag Drop Airport

Update a link
 
Copyright © AirNav, LLC. All rights reserved. Privacy Policy  Contact